Content
SEND FEEDBACK

Daily
Averages
Monthly
Summary
United States of America

PUT IN BAY, OHIO


Home > North America > United States > Ohio
Elevation: 561 feet     Latitude: 41 39N     Longitude: 082 48W

WEATHER
 
SELECT A DAY
Number of Records: 125,400;   Date Range: 12/10/00 - 12/26/14
 
SHARE

PRINT THIS DATA

[ ← Previous Day ]
WEATHER ALMANAC - FEBRUARY 28, 2013
[ Next Day → ]
[ °C ]   °F
Weather ElementAverageHighLow
Temperature33.4 °F38.1 °F (1:00 pm)30.7 °F (11:00 pm)
Dewpoint30 °F33.1 °F (11:00 am)24.4 °F (10:00 pm)
Humidity87.1 %100 % (7:00 am)72 % (7:00 pm)
Barometer29.71 in29.94 in (9:00 pm)29.57 in (1:00 am)
Wind Speed8.5 mph12.7 mph (2:00 pm)
Wind Gust19.6 mph (2:00 pm)
Weather ElementAverage
Wind DirectionWSW (250.4 °)

Weather ElementTotal
Precipitation0.03 in
Heating Degree Days30.6 (Base 65)
Averaged from 26 records on February 28, 2013
WEATHER CONDITIONS BREAKOUT
WIND DIRECTION BREAKOUT
WEATHER BY HOUR - FEBRUARY 28, 2013
[ °C ]   °F
Local TimeTemperatureDewpointHumidityBarometerVisibilityWind DirectionWind SpeedGust SpeedPrecipitationEventsConditions
1:00 AM32.0 °F31.0 °F96 %29.57 inSW (230°)9.2 mph
1:00 AM31.6 °F31.3 °F99 %29.57 inSW (230°)9.2 mph
2:00 AM31.6 °F31.1 °F98 %29.58 inWSW (240°)9.2 mph
3:00 AM31.8 °F30.7 °F96 %29.57 inWSW (240°)10.4 mph
4:00 AM31.8 °F30.9 °F96 %29.57 inWSW (250°)8.1 mph
5:00 AM31.8 °F31.1 °F97 %29.57 inWSW (250°)9.2 mph
6:00 AM31.8 °F31.3 °F98 %29.58 inWest (260°)8.1 mph
7:00 AM33.0 °F32.0 °F93 %29.59 inWest (280°)5.8 mph
7:00 AM31.5 °F31.8 °F100 %29.59 inWest (280°)5.8 mph
8:00 AM31.5 °F31.8 °F100 %29.61 inNW (310°)4.6 mph
9:00 AM31.3 °F31.8 °F100 %29.63 inNW (320°)5.8 mph0.02 in
10:00 AM33.4 °F31.3 °F92 %29.65 inNNW (340°)4.6 mph0.01 in
11:00 AM34.7 °F33.1 °F94 %29.67 inNorth (360°)9.2 mph
12:00 PM36.3 °F32.9 °F87 %29.70 inNorth (360°)9.2 mph
1:00 PM38.0 °F33.0 °F74 %29.70 inNorth11.5 mph
1:00 PM38.1 °F31.5 °F77 %29.70 inNorth (360°)11.5 mph
2:00 PM38.1 °F30.6 °F74 %29.72 inNorth (360°)12.7 mph19.6 mph
3:00 PM36.9 °F29.3 °F74 %29.75 inNorth (360°)12.7 mph
4:00 PM36.0 °F28.9 °F76 %29.77 inNorth (360°)11.5 mph17.3 mph
5:00 PM34.7 °F28.9 °F79 %29.81 inNorth (360°)9.2 mph
6:00 PM33.4 °F27.3 °F78 %29.84 inNorth (360°)8.1 mph
7:00 PM33.0 °F27.0 °F72 %29.88 inNorth (10°)6.9 mph
8:00 PM32.0 °F26.4 °F80 %29.91 inNorth (10°)8.1 mph
9:00 PM31.3 °F26.1 °F81 %29.94 inNorth (10°)8.1 mph
10:00 PM31.1 °F24.4 °F76 %29.94 inNorth (10°)6.9 mph
11:00 PM30.7 °F24.6 °F78 %29.94 inNorth (360°)5.8 mph
Hourly data recorded from CXHA, located miles away from Put In Bay, Ohio







STORIES FROM OUR PARTNERS